Language selection

Features

My Weather Profile Weather Topics  | 

Belle Isle Bank: Past 24 Hour Conditions

 

Mary's Harbour

02:30 AM NST 12 December 2019
Disclaimer

This table is a summary of hourly weather conditions for the past 24 hours.
Please note that these observations might not always be representative of weather conditions over their associated marine area.

Date / Time
(NST)
Wind(knots) Conditions Visibility(km) Pressure(kPa) Air tempC) Relative humidity(%) Dew pointC) Wind Chill
12 December 2019
2:30 W 14 Clear 16 101.3 -16 57 -23 -27
1:30 WSW 10 gust 15 Clear 16 101.3 -15 57 -22 -24
0:30 WSW 11 gust 16 Clear 16 101.3 -15 54 -22 -24
11 December 2019
23:30 WSW 12 gust 18 Clear 16 101.3 -14 51 -22 -23
22:30 W 13 gust 22 Clear 16 101.2 -13 50 -22 -23
21:30 W 11 gust 21 Clear 16 101.2 -13 50 -21 -21
20:30 W 10 gust 29 Clear 16 101.1 -12 49 -21 -20
19:30 W 11 gust 25 Mainly Clear 16 100.9 -11 48 -20 -19
18:30 WSW 14 gust 25 Mostly Cloudy 16 100.9 -10 48 -20 -19
17:30 W 17 gust 26 Cloudy 16 100.8 -10 46 -20 -20
16:30 W 17 gust 33 Clear 16 100.5 -10 46 -20 -20
15:30 W 25 gust 36 Sunny 16 100.5 -9 41 -20 -20
14:30 W 22 gust 36 Sunny 16 100.4 -9 43 -19 -19
13:30 WSW 23 gust 34 Sunny 16 100.3 -9 44 -19 -19
12:30 W 25 gust 40 Sunny 16 100.2 -9 44 -19 -20
11:30 W 28 gust 43 Sunny 16 100.1 -9 44 -19 -20
10:30 W 21 gust 38 Sunny 16 100.1 -10 51 N/A -20
9:30 W 26 gust 42 Sunny 16 99.9 -7 57 N/A -17
8:30 W 20 gust 32 Light Snow 16 99.6 -2 75 -6 -10
7:30 W 16 gust 30 Precipitation 1 99.4 0 93 -1 *
6:30 SW 22 gust 31 Clear 16 99.1 3 77 -1 *
5:30 SW 17 gust 30 Clear 16 99.1 4 83 1 *
4:30 SW 19 gust 32 Mainly Clear 16 99.1 4 83 2 *
3:30 SW 16 gust 26 Clear 16 99.1 4 88 2 *
2:30 SW 15 gust 28 Mainly Clear 16 99.1 4 89 3 *

Zoom-in to make a selection

Map of Atlantic - Newfoundland marine weather areas Banquereau - 44139 Blanc-Sablon Airport Cap Whittle Chevery Natashquan Airport Heath Point Îles de la Madeleine Airport Miscou Island Eskasoni (First Nations) Grand Étang Ingonish Beach North Mountain St.Paul Island J.A. Douglas McCurdy Sydney Airport Charlottetown Airport East Point North Cape Argentia Bonavista Burgeo Cape Race Corner Brook Daniel's Harbour Englee Ferolle Point La Scie Port aux Basques Rocky Harbour Sagona Island St. Anthony Airport St. John's Int'l Airport St. Lawrence Stephenville Airport Twillingate Winterland Branch Hill Wreckhouse Grates Cove Pool's Island Marticot Island Long Pond Cartwright Airport Mary's Harbour
Legend:
buoy Buoy
land station Land Station

Atlantic - Newfoundland Area

Another Region

What we are doing

Date modified: